Bloomington, IN

5:18 PM EDT on August 19, 2017 (GMT -0400)
Monroe County

Weather History for KBMG - May, 2012

Change the Weather History Date:

Sunday, May 13, 2012

  Actual Average Record
Temperature  
Mean Temperature 64 °F 62 °F  
Max Temperature 73 °F 73 °F 129 °F (2016)
Min Temperature 55 °F 51 °F 34 °F (2001)
Degree Days  
Heating Degree Days 1 5  
Month to date heating degree days 26 78  
Since 1 July heating degree days 4128 5192  
Cooling Degree Days 0 2  
Month to date cooling degree days 61 14  
Year to date cooling degree days 109 33  
Growing Degree Days 14 (Base 50)    
Moisture  
Dew Point 55 °F    
Average Humidity 69    
Maximum Humidity 93    
Minimum Humidity 44    
Precipitation  
Precipitation 0.00 in 0.17 in 1.36 in (2002)
Month to date precipitation 1.87 2.29  
Year to date precipitation 11.32 16.94  
Sea Level Pressure  
Sea Level Pressure 30.10 in    
Wind  
Wind Speed 6 mph (East)    
Max Wind Speed 18 mph    
Max Gust Speed 24 mph    
Visibility 10 miles    
Events      
T = Trace of Precipitation, MM = Missing Value Source: NWS Daily Summary

Daily Weather History Graph

Daily Weather History Graph

Search for Another Location

Airport or City:

Trip Planner

Search our weather history database for the weather conditions in past years. The results will help you decide how hot, cold, wet, or windy it might be!

Date:

Astronomy

May. 13, 2012 Rise Set
Actual Time 6:34 AM EDT 8:51 PM EDT
Civil Twilight 6:04 AM EDT 9:21 PM EDT
Nautical Twilight 5:27 AM EDT 9:58 PM EDT
Astronomical Twilight 4:47 AM EDT 10:39 PM EDT
Moon 2:36 AM EDT (5/13) 2:14 PM EDT (5/13)
Length of Visible Light 15h 16m
Length of Day
14h 16m
Last Quarter, 42% of the Moon is Illuminated
May 13
Last Quarter
May 20
New
May 28
First Quarter
Jun 4
Full
Jun 11
Last Quarter

Hourly Weather History & Observations

Time (EDT) Temp. Dew Point Humidity Pressure Visibility Wind Dir Wind Speed Gust Speed Precip Events Conditions
12:53 AM 59.0 °F 55.0 °F 87% 30.17 in 10.0 mi Calm Calm - N/A   Overcast
1:53 AM 57.0 °F 55.0 °F 93% 30.16 in 10.0 mi Calm Calm - N/A   Scattered Clouds
2:53 AM 55.0 °F 53.1 °F 93% 30.15 in 9.0 mi Calm Calm - N/A   Scattered Clouds
3:53 AM 55.9 °F 54.0 °F 93% 30.14 in 10.0 mi Calm Calm - N/A   Overcast
4:53 AM 55.9 °F 54.0 °F 93% 30.14 in 10.0 mi Calm Calm - N/A   Overcast
5:53 AM 57.0 °F 55.0 °F 93% 30.14 in 10.0 mi Calm Calm - N/A   Overcast
6:53 AM 57.0 °F 55.0 °F 93% 30.14 in 9.0 mi Calm Calm - N/A   Mostly Cloudy
7:53 AM 59.0 °F 55.9 °F 90% 30.14 in 10.0 mi Calm Calm - N/A   Overcast
8:53 AM 62.1 °F 57.9 °F 86% 30.14 in 10.0 mi Calm Calm - N/A   Overcast
9:53 AM 66.9 °F 54.0 °F 63% 30.14 in 10.0 mi ESE 9.2 mph - N/A   Scattered Clouds
10:53 AM 66.9 °F 55.0 °F 66% 30.13 in 10.0 mi ESE 6.9 mph - N/A   Partly Cloudy
11:53 AM 66.9 °F 54.0 °F 63% 30.12 in 10.0 mi East 9.2 mph - N/A   Overcast
12:53 PM 71.1 °F 54.0 °F 55% 30.11 in 10.0 mi East 10.4 mph - N/A   Scattered Clouds
1:53 PM 72.0 °F 54.0 °F 53% 30.09 in 10.0 mi East 9.2 mph 18.4 mph N/A   Partly Cloudy
2:53 PM 71.1 °F 52.0 °F 51% 30.08 in 10.0 mi ENE 12.7 mph 20.7 mph N/A   Clear
3:53 PM 71.1 °F 48.9 °F 45% 30.07 in 10.0 mi East 15.0 mph 19.6 mph N/A   Mostly Cloudy
4:53 PM 72.0 °F 52.0 °F 49% 30.04 in 10.0 mi East 10.4 mph 18.4 mph N/A   Scattered Clouds
5:53 PM 71.1 °F 54.0 °F 55% 30.04 in 10.0 mi East 5.8 mph - N/A   Partly Cloudy
6:53 PM 71.1 °F 53.1 °F 53% 30.03 in 10.0 mi NE 10.4 mph - N/A   Partly Cloudy
7:53 PM 68.0 °F 55.9 °F 65% 30.03 in 10.0 mi ESE 8.1 mph - N/A   Clear
8:53 PM 64.0 °F 57.0 °F 78% 30.04 in 10.0 mi ESE 6.9 mph - N/A   Clear
9:53 PM 61.0 °F 57.0 °F 87% 30.05 in 10.0 mi East 4.6 mph - N/A   Partly Cloudy
10:11 PM 62.6 °F 57.2 °F 82% 30.06 in 10.0 mi East 6.9 mph - N/A   Mostly Cloudy
10:49 PM 62.6 °F 57.2 °F 82% 30.07 in 10.0 mi East 6.9 mph - N/A   Overcast
10:53 PM 62.1 °F 57.0 °F 84% 30.06 in 10.0 mi ESE 8.1 mph - N/A   Overcast
11:53 PM 62.1 °F 57.0 °F 84% 30.05 in 10.0 mi East 5.8 mph - N/A   Mostly Cloudy